STARLINK-31287

decayed
NORAD ID: 58950 Int'l Des: 2024-027 Owner: SPXS Country: US Constellation: starlink
LEOCIRCULAR
Gruppe

Über STARLINK-31287

Beschreibung wird geladen...

Höhenverlauf

Altitude vs Time

uPlot chart will show altitude changes over time

Zweizeiliger Elementsatz

1 58950U 24027V 24064.42137150 .83069799 12477-4 23961-2 0 9990
2 58950 53.1544 117.4851 0002550 154.2026 326.7997 16.45373278 4429
Epoch: 4. März 2024 • Age: 13518 hours

Aktueller Status

Position data unavailable
Startdatum 10. Feb. 2024
Alter 1.6 years
Verglühungsdatum 4. März 2024
Typ internet

Technische Details

Klassifizierung Payload
Masse 730.00 kg
Trockenmasse 700.00 kg
Gesamtmasse 730.00 kg
Länge 0.30 m
Durchmesser 4.10 m
Spannweite 29.00 m
Form Box + pan
Hersteller SPXS
Bus-Typ Starlink V2M
Phasenstatus Unknown Transfer Status
Besitzer/Staat SPXS/US

Große Konstellationen

Loading constellations...